Regional Weather Roundup
Issued by NWS

Home | Current Version | Previous Version | Graphics & Text | Print | Product List | Glossary On
Versions: 1 2 3 4 5 6 7 8 9 10 11 12 13 14 15 16 17 18 19 20 21 22 23 24 25 26 27 28 29 30 31 32 33 34 35 36 37 38 39 40 41 42 43 44 45 46 47 48 49 50
999
ASUS43 KOAX 250410
RWRNE

WEATHER ROUNDUP FOR NEBRASKA
NATIONAL WEATHER SERVICE OMAHA NE
1100 PM CDT SAT JUN 24 2017

NOTES: SATELLITE DATA IS BEING USED TO AUGMENT CLOUD COVER ABOVE
       12000 FEET.
       "FAIR" INDICATES FEW OR NO CLOUDS BELOW 12,000 FEET WITH NO
       SIGNIFICANT WEATHER AND/OR OBSTRUCTIONS TO VISIBILITY.

  * THESE STATIONS DO NOT REPORT WEATHER SUCH AS RAIN...SNOW OR FOG.

NEZ001>004-019>022-054>056-250500-
NEBRASKA PANHANDLE

CITY           SKY/WX    TMP DP  RH WIND       PRES   REMARKS
SCOTTSBLUFF    CLEAR     58  40  51 MISG      30.32R
ALLIANCE       CLEAR     58  39  49 CALM      30.31R
CHADRON        MOCLDY    61  38  42 SE3       30.31R
GORDON         FAIR      55  38  52 CALM      30.32R
KIMBALL        CLEAR     56  43  63 NE3       30.37R
SIDNEY         CLEAR     56  38  50 E7        30.35R
$$

NEZ057>060-069>072-079>082-250500-
SOUTHWEST NEBRASKA

CITY           SKY/WX    TMP DP  RH WIND       PRES   REMARKS
NORTH PLATTE   CLEAR     53  38  56 CALM      30.29R
IMPERIAL       CLEAR     55  46  71 S5        30.30R
LEXINGTON      CLEAR     56  44  62 SW6       30.28R
MCCOOK         CLOUDY    63  49  60 CALM      30.28R
OGALLALA       CLEAR     58  38  47 CALM      30.31R
$$

NEZ005>010-023>029-035>040-094-250500-
NORTH CENTRAL NEBRASKA

CITY           SKY/WX    TMP DP  RH WIND       PRES   REMARKS
VALENTINE      CLEAR     62  29  28 NE10      30.29R
AINSWORTH      CLEAR     55  36  50 NE5       30.29R
BROKEN BOW     PTCLDY    53  44  71 N3        30.26R
O`NEILL        CLEAR     58  37  43 N8        30.26R
ORD            CLEAR     52  43  71 CALM      30.24R
THEDFORD       CLEAR     58  35  41 CALM      30.29R
$$

NEZ041-046>049-061>064-073>077-083>087-250500-
SOUTH CENTRAL NEBRASKA

CITY           SKY/WX    TMP DP  RH WIND       PRES   REMARKS
GRAND ISLAND   CLEAR     57  46  66 W5        30.24R
AURORA         CLEAR     56  47  72 W3        30.24R
HASTINGS       CLEAR     59  46  62 SW3       30.26R
HEBRON         CLOUDY    64  50  59 W3        30.24R
HOLDREGE       CLEAR     60  42  50 CALM      30.28R
KEARNEY *      PTCLDY    64  39  39 CALM      30.27R
YORK           CLEAR     57  46  67 CALM      30.23R
$$

NEZ011>018-030>034-042>045-250500-
NORTHEAST NEBRASKA

CITY           SKY/WX    TMP DP  RH WIND       PRES   REMARKS
NORFOLK        CLEAR     55  39  54 NW3       30.22R
ALBION         CLEAR     57  40  51 NW3       30.24R
BLAIR          CLEAR     66  39  37 NW8       30.19R
FREMONT        CLEAR     60  44  55 CALM      30.20R
TEKAMAH        CLEAR     59  38  45 NW9       30.19R
WAYNE          CLEAR     52  41  66 CALM      30.22R
$$

NEZ050>053-065>068-078-088>093-250500-
SOUTHEAST NEBRASKA

CITY           SKY/WX    TMP DP  RH WIND       PRES   REMARKS
LINCOLN        CLEAR     61  45  55 N3        30.20R
OMAHA EPPLEY   PTCLDY    64  47  53 N3        30.18R
BEATRICE       CLEAR     62  50  66 W5        30.20S
FALLS CITY     CLEAR     65  45  48 W8        30.17R
NEBRASKA CITY  CLEAR     62  51  65 W9        30.19R
PLATTSMOUTH    CLEAR     64  44  48 NW5       30.19R
$$

NEZ044-045-051>053-067-250500-
OMAHA AREA

CITY           SKY/WX    TMP DP  RH WIND       PRES   REMARKS
OMAHA EPPLEY   PTCLDY    64  47  53 N3        30.18R
BLAIR          CLEAR     66  39  37 NW8       30.19R
FREMONT        CLEAR     60  44  55 CALM      30.20R
MILLARD        CLEAR     67  46  47 CALM      30.19R
OFFUTT AFB     CLEAR     60  44  55 NW3       30.17R
PLATTSMOUTH    CLEAR     64  44  48 NW5       30.19R
WAHOO          FAIR      61  41  46 NW5       30.20R
$$




USA.gov is the U.S. government's official web portal to all federal, state and local government web resources and services.